Погода в Жудерском

Россия / Орловская область     53°15′21″N   35°17′36″E
темп.,
°C
ветер,
м/с
пор.,
м/с
влажн.,
%
обл.,
%
осадки,
мм/ч
давл.,
гПа
погр.,
м
19 мая, ср
ср1900:00+15юв389699 0.1 1002291
03:00+14юв3795100 0.4 1002236
06:00+13юв49965 0.3 1003357
09:00+17ююв477998 0.3 1004701
12:00+19ююв6862100 0.4 10041467
15:00+19ююв5659100 0.7 10051508
18:00+18ююв3569100 0.1 1004851
21:00+13ююв2394100 0.9 100597
20 мая, чт
чт2000:00+13с2497100 0.0 1002139
03:00+13св3896100 2.3 1000571
06:00+11ююв71197100 0.9 1000644
09:00+11ююв5896100 1.6 1001561
12:00+12ю5996100 1.4 1003669
15:00+12ююз51096100 3.3 1004676
18:00+11зюз51195100 0.6 1006689
21:00+10зюз51196100 0.7 1007572
21 мая, пт
пт2100:00+9з5129257 0.0 1009671
03:00+8зюз5139598 0.0 1011590
06:00+8з41192100 0.0 1013443
09:00+13зсз4668100 0.0 1014743
12:00+17з3554100 0.0 10151473
15:00+18з344799 0.0 10152001
18:00+17з235747 0.0 1015808
21:00+11сз227973 0.0 101824
22 мая, сб
сб2200:00+9с358498 0.0 101880
03:00+8ссв238330 0.0 101944
06:00+9св26830 0.0 1019134
09:00+15всв34600 0.0 1019603
12:00+18вюв335298 0.0 10181481
15:00+20юв335198 0.0 10171826
18:00+19вюв23599 0.0 10171012
21:00+13юв35892 0.0 101779
23 мая, вс
вс2300:00+10вюв369499 0.0 1016117
03:00+10в259798 0.0 1015115
06:00+11в389499 0.0 1013241
09:00+16вюв357719 0.0 1011523
12:00+20ююв337099 0.0 1010932
15:00+19юз237679 0.1 1008541
18:00+20юз237799 0.4 1008309
21:00+15зсз369142 0.8 1009119